Home > Weather > Dallas > Past weeks

Flag for USA Past Weather in Dallas, Texas, USA — Yesterday and Last 2 Weeks

Now
94 °F

Scattered clouds.


Feels Like: 96 °F
Forecast: 77 / 92 °F
Wind: 14 mph from South

Location: Dallas Love Field

Current Time: Jun 24, 2016 at 3:21:11 PM

Latest Report: Jun 24, 2016 at 2:53 PM


Visibility: 10 mi

Pressure: 29.97 "Hg

Humidity: 38%

Dew Point: 65 °F

Location of DallasLocation

Past Weather in Dallas — Graph

°F

Dallas Temperature Yesterday

Maximum temperature yesterday: 95 °F (at 4:53 PM)
Minimum temperature yesterday: 80 °F (at 5:53 AM)
Average temperature yesterday: 87 °F

High & Low Weather Summary for the Past Weeks

 TemperatureHumidityPressure
High98 °F (Jun 21, 4:53 PM)94% (Jun 13, 1:53 AM)30.19 "Hg (Jun 13, 1:53 AM)
Low74 °F (Jun 13, 1:53 AM)31% (Jun 20, 5:53 PM)29.76 "Hg (Jun 14, 6:53 PM)
Average86 °F64%29.96 "Hg
* Reported Jun 9 1:53 PM — Jun 24 1:53 PM, Dallas, Weather by CustomWeather, © 2016

Note: Actual official high and low records may vary slightly from our data, if they occured in-between our weather recording intervals... More about our weather records

Advertising

Dallas Weather History for the Previous 24 Hours

Scroll right to see more
 ConditionsComfort  
Time TempWeatherWind HumidityBarometerVisibility
1:53 PM
Fri, Jun 24
94 °FPassing clouds.10 mph40%30.00 "Hg10 mi
12:53 PM91 °FScattered clouds.9 mph47%30.01 "Hg10 mi
11:53 AM89 °FPassing clouds.9 mph52%30.03 "Hg10 mi
10:53 AM87 °FPassing clouds.9 mph57%30.04 "Hg10 mi
9:53 AM84 °FPassing clouds.8 mph65%30.05 "Hg10 mi
8:53 AM82 °FPassing clouds.10 mph70%30.05 "Hg10 mi
7:53 AM80 °FPassing clouds.8 mph76%30.04 "Hg10 mi
6:53 AM79 °FPassing clouds.9 mph74%30.02 "Hg10 mi
5:53 AM79 °FPassing clouds.6 mph74%30.01 "Hg10 mi
4:53 AM80 °FPassing clouds.9 mph69%29.99 "Hg10 mi
3:53 AM82 °FClear.8 mph65%29.98 "Hg10 mi
2:53 AM82 °FClear.8 mph67%29.98 "Hg10 mi
1:53 AM83 °FClear.7 mph65%29.98 "Hg10 mi
12:53 AM85 °FClear.10 mph61%29.97 "Hg10 mi
11:53 PM
Thu, Jun 23
85 °FClear.9 mph61%29.97 "Hg10 mi
10:53 PM87 °FClear.13 mph57%29.96 "Hg10 mi
9:53 PM88 °FClear.12 mph54%29.95 "Hg10 mi
8:53 PM89 °FPassing clouds.17 mph52%29.94 "Hg10 mi
7:53 PM91 °FPassing clouds.16 mph49%29.95 "Hg10 mi
6:53 PM94 °FPassing clouds.14 mph43%29.94 "Hg10 mi
5:53 PM95 °FPassing clouds.12 mph39%29.94 "Hg10 mi
4:53 PM95 °FPassing clouds.10 mph41%29.95 "Hg10 mi
3:53 PM94 °FPassing clouds.13 mph46%29.96 "Hg10 mi
Weather by CustomWeather, © 2016

See weather overviewHow to use our weather pages